Starlink 11466

operational
NORAD ID: 62220 Int'l Des: 2024-231 Owner: SPXS Country: US Constellation: starlink
LEOCIRCULAR

About Starlink 11466

Description loading...

Live Position

Loading 3D Globe...

Upcoming Passes

Altitude History

Altitude vs Time

uPlot chart will show altitude changes over time

Two-Line Element Set

1 62220U 24231C 25354.76907169 .00182970 00000-0 14779-2 0 9995
2 62220 53.1562 130.5000 0001132 47.3784 312.7329 15.69777740 61013
Epoch: Dec 20, 2025 • Age: 9 hours

Current Status

Altitude 371.4 km
Velocity 7.69 km/s
Sub-Earth Point -35.85°S, 154.53°W
Launch Date Dec 5, 2024
Age 1 years
Type internet

Technical Details

Classification Payload
Mass 960.00 kg
Dry Mass 910.00 kg
Total Mass 960.00 kg
Length 0.30 m
Diameter 4.10 m
Span 29.00 m
Shape Box + pan
Manufacturer SPXS
Bus Type Starlink V2MD
Phase Status In Orbit
Owner/State SPXS/US

Large Constellations

Loading constellations...